User: anonymous   Login
Location: Beang
(6.6177°N, 10.9863°W)
Time: 11:57:37
(UTC+00:00)
Language:

Delta 168 - Orbit

View from above orbital plane
View from above orbital plane
View from above satellite
View from above satellite

Ground track
Ground track

The orbit data is extracted from the following two-line orbital elements,

1 14051U 83041B   21166.85143893  .00001226  00000-0  92978-4 0  9994
2 14051  25.3378 245.2367 1086633 298.7165  50.8364 13.10895016769951
Epoch (UTC): 15 June 2021 20:26:04
Eccentricity: 0.1086633
inclination: 25.3378°
perigee height: 394 km
apogee height: 2045 km
right ascension of ascending node: 245.2367°
argument of perigee: 298.7165°
revolutions per day: 13.10895016
mean anomaly at epoch: 50.8364°
orbit number at epoch: 76995

The dashed part of the orbit path shows where the satellite is in the earth's shadow,  

DLR